Location: St Paul
(33.4390°N, 83.7350°W)
Time: 21:41:14
(UTC-05:00)

Cosmos 1727 Rocket - Pass Details

Date: 06 October 2017
Orbit: 960 x 997 km, 82.9° (Epoch: 13 December)

Event Time Altitude Azimuth Distance (km) Brightness Sun altitude
Rises 20:46:31 0° 359° (N) 3,716 7.1 -20.5°
Reaches altitude 10° 20:49:07 10° 4° (N) 2,766 6.4 -21.0°
Maximum altitude 20:55:20 55° 81° (E) 1,180 4.0 -22.3°
Enters shadow 20:57:56 34° 141° (SE) 1,576 4.7 -22.8°
